,,Stat6,,Stat2,,Stat8,,Stat9,,Stat10,,Wind1,,Wind1,
time,status,PA1M_AVG,status,PR1M_SUM,status,RH1M_AVG,status,SR1M_AVG,status,TA1M_AVG,status,W1dAve1m,status,W1sAve1m,
2008-10-16, 00:00:00,VALID,917.416,VALID,0,VALID,100,VALID,0.0169808,VALID,19.3901,VALID,172,VALID,0,
2008-10-16, 00:01:00,VALID,917.418,VALID,0,VALID,100,VALID,0.0169808,VALID,19.3814,VALID,167,VALID,0.116257,
2008-10-16, 00:02:00,VALID,917.421,VALID,0,VALID,100,VALID,-0.0169808,VALID,19.3846,VALID,172,VALID,0.483073,
2008-10-16, 00:03:00,VALID,917.416,VALID,0,VALID,100,VALID,-0.0169808,VALID,19.3774,VALID,175,VALID,0.228237,
2008-10-16, 00:04:00,VALID,917.397,VALID,0,VALID,100,VALID,0,VALID,19.3741,VALID,184,VALID,0.00260417,
2008-10-16, 00:05:00,VALID,917.376,VALID,0,VALID,100,VALID,0,VALID,19.3876,VALID,185,VALID,0,
2008-10-16, 00:06:00,VALID,917.356,VALID,0,VALID,100,VALID,0,VALID,19.4071,VALID,193,VALID,0.0486506,
2008-10-16, 00:07:00,VALID,917.332,VALID,0,VALID,100,VALID,0,VALID,19.4131,VALID,195,VALID,0,
2008-10-16, 00:08:00,VALID,917.298,VALID,0,VALID,100,VALID,0,VALID,19.4163,VALID,188,VALID,0,
2008-10-16, 00:09:00,VALID,917.269,VALID,0,VALID,100,VALID,0.0169808,VALID,19.4363,VALID,192,VALID,0.377992,
2008-10-16, 00:10:00,VALID,917.24,VALID,0,VALID,100,VALID,-0.0169808,VALID,19.446,VALID,190,VALID,0,
2008-10-16, 00:11:00,VALID,917.215,VALID,0,VALID,100,VALID,0.0339617,VALID,19.4457,VALID,189,VALID,0.00130208,
2008-10-16, 00:12:00,VALID,917.191,VALID,0,VALID,100,VALID,0.0169808,VALID,19.4388,VALID,189,VALID,0,
2008-10-16, 00:13:00,VALID,917.151,VALID,0,VALID,100,VALID,0.0169808,VALID,19.452,VALID,188,VALID,0.000520833,
2008-10-16, 00:14:00,VALID,917.124,VALID,0,VALID,100,VALID,0.0679233,VALID,19.4485,VALID,191,VALID,0.12064,
2008-10-16, 00:15:00,VALID,917.083,VALID,0,VALID,100,VALID,0.0169808,VALID,19.4545,VALID,196,VALID,0,
2008-10-16, 00:16:00,VALID,917.078,VALID,0,VALID,100,VALID,0.0169808,VALID,19.4682,VALID,186,VALID,0.0492369,
2008-10-16, 00:17:00,VALID,917.054,VALID,0,VALID,100,VALID,0.0169808,VALID,19.4715,VALID,171,VALID,0.0340909,
2008-10-16, 00:18:00,VALID,917.04,VALID,0,VALID,100,VALID,0.0339617,VALID,19.4707,VALID,177,VALID,0,
2008-10-16, 00:19:00,VALID,917.023,VALID,0,VALID,100,VALID,0.0169808,VALID,19.4749,VALID,178,VALID,0.0444444,
2008-10-16, 00:20:00,VALID,916.99,VALID,0,VALID,100,VALID,0.0339617,VALID,19.4847,VALID,172,VALID,0.0252544,
2008-10-16, 00:21:00,VALID,916.961,VALID,0,VALID,100,VALID,0,VALID,19.4772,VALID,170,VALID,0.343205,
2008-10-16, 00:22:00,VALID,916.92,VALID,0,VALID,100,VALID,0.0169808,VALID,19.4974,VALID,186,VALID,0.247582,
2008-10-16, 00:23:00,VALID,916.915,VALID,0,VALID,100,VALID,0.0169808,VALID,19.5169,VALID,177,VALID,0,
2008-10-16, 00:24:00,VALID,916.906,VALID,0,VALID,100,VALID,0,VALID,19.5169,VALID,159,VALID,0.393714,
2008-10-16, 00:25:00,VALID,916.908,VALID,0,VALID,100,VALID,0,VALID,19.5136,VALID,160,VALID,0.0425967,
2008-10-16, 00:26:00,VALID,916.926,VALID,0,VALID,100,VALID,0,VALID,19.5234,VALID,160,VALID,0.545632,
2008-10-16, 00:27:00,VALID,916.928,VALID,0,VALID,100,VALID,-0.0339617,VALID,19.5204,VALID,146,VALID,0.676847,
2008-10-16, 00:28:00,VALID,916.936,VALID,0,VALID,100,VALID,0,VALID,19.5398,VALID,143,VALID,0.136719,
2008-10-16, 00:29:00,VALID,916.934,VALID,0,VALID,100,VALID,0.0339617,VALID,19.5561,VALID,143,VALID,0,
2008-10-16, 00:30:00,VALID,916.934,VALID,0,VALID,100,VALID,-0.0169808,VALID,19.5526,VALID,151,VALID,0.056593,
2008-10-16, 00:31:00,VALID,916.94,VALID,0,VALID,100,VALID,0.0339617,VALID,19.566,VALID,162,VALID,0.304497,
2008-10-16, 00:32:00,VALID,916.93,VALID,0,VALID,100,VALID,0.0169808,VALID,19.5688,VALID,161,VALID,0.308222,
2008-10-16, 00:33:00,VALID,916.93,VALID,0,VALID,100,VALID,0,VALID,19.5653,VALID,151,VALID,0.105841,
2008-10-16, 00:34:00,VALID,916.943,VALID,0,VALID,100,VALID,0,VALID,19.5655,VALID,146,VALID,0.765024,
2008-10-16, 00:35:00,VALID,916.94,VALID,0,VALID,100,VALID,-0.0509425,VALID,19.5795,VALID,145,VALID,0.167441,
2008-10-16, 00:36:00,VALID,916.942,VALID,0,VALID,100,VALID,-0.0339617,VALID,19.6027,VALID,141,VALID,0,
2008-10-16, 00:37:00,VALID,916.941,VALID,0,VALID,100,VALID,-0.0509425,VALID,19.6025,VALID,138,VALID,0,
2008-10-16, 00:38:00,VALID,916.936,VALID,0,VALID,100,VALID,-0.0509425,VALID,19.6087,VALID,118,VALID,0,
2008-10-16, 00:39:00,VALID,916.922,VALID,0,VALID,100,VALID,-0.0339617,VALID,19.6416,VALID,118,VALID,0,
2008-10-16, 00:40:00,VALID,916.912,VALID,0,VALID,100,VALID,-0.0509425,VALID,19.6449,VALID,114,VALID,0,
2008-10-16, 00:41:00,VALID,916.909,VALID,0,VALID,100,VALID,-0.0509425,VALID,19.6579,VALID,112,VALID,0,
2008-10-16, 00:42:00,VALID,916.893,VALID,0,VALID,100,VALID,-0.0509425,VALID,19.6514,VALID,111,VALID,0,
2008-10-16, 00:43:00,VALID,916.871,VALID,0,VALID,100,VALID,-0.0169808,VALID,19.6252,VALID,102,VALID,0,
2008-10-16, 00:44:00,VALID,916.854,VALID,0,VALID,100,VALID,-0.0169808,VALID,19.554,VALID,100,VALID,0,
2008-10-16, 00:45:00,VALID,916.835,VALID,0,VALID,100,VALID,-0.0169808,VALID,19.5306,VALID,100,VALID,0,
2008-10-16, 00:46:00,VALID,916.82,VALID,0,VALID,100,VALID,0,VALID,19.5243,VALID,100,VALID,0,
2008-10-16, 00:47:00,VALID,916.803,VALID,0,VALID,100,VALID,-0.0509425,VALID,19.5348,VALID,67,VALID,0,
2008-10-16, 00:48:00,VALID,916.789,VALID,0,VALID,100,VALID,-0.0509425,VALID,19.5019,VALID,48,VALID,0,
2008-10-16, 00:49:00,VALID,916.782,VALID,0,VALID,100,VALID,-0.0679233,VALID,19.4956,VALID,67,VALID,0,
2008-10-16, 00:50:00,VALID,916.753,VALID,0,VALID,100,VALID,0,VALID,19.4722,VALID,72,VALID,0,
2008-10-16, 00:51:00,VALID,916.738,VALID,0,VALID,100,VALID,-0.0169808,VALID,19.4724,VALID,76,VALID,0,
2008-10-16, 00:52:00,VALID,916.697,VALID,0,VALID,100,VALID,-0.0509425,VALID,19.4632,VALID,77,VALID,0.109549,
2008-10-16, 00:53:00,VALID,916.693,VALID,0,VALID,100,VALID,-0.0849042,VALID,19.4535,VALID,81,VALID,0.00117188,
2008-10-16, 00:54:00,VALID,916.674,VALID,0,VALID,100,VALID,-0.0509425,VALID,19.453,VALID,83,VALID,0,
2008-10-16, 00:55:00,VALID,916.653,VALID,0,VALID,100,VALID,-0.0509425,VALID,19.437,VALID,78,VALID,0.768169,
2008-10-16, 00:56:00,VALID,916.654,VALID,0,VALID,100,VALID,-0.0169808,VALID,19.424,VALID,99,VALID,0.014881,
2008-10-16, 00:57:00,VALID,916.635,VALID,0,VALID,100,VALID,-0.0169808,VALID,19.4375,VALID,113,VALID,0,
2008-10-16, 00:58:00,VALID,916.622,VALID,0,VALID,100,VALID,-0.0169808,VALID,19.4303,VALID,117,VALID,0,
2008-10-16, 00:59:00,VALID,916.617,VALID,0,VALID,100,VALID,-0.0169808,VALID,19.44,VALID,122,VALID,0,
2008-10-16, 01:00:00,VALID,916.603,VALID,0,VALID,100,VALID,-0.0169808,VALID,19.4462,VALID,108,VALID,0,
2008-10-16, 01:01:00,VALID,916.602,VALID,0,VALID,100,VALID,0,VALID,19.453,VALID,108,VALID,0,
2008-10-16, 01:02:00,VALID,916.59,VALID,0,VALID,100,VALID,-0.0169808,VALID,19.4562,VALID,101,VALID,0,
2008-10-16, 01:03:00,VALID,916.58,VALID,0,VALID,100,VALID,0,VALID,19.4592,VALID,104,VALID,0,
2008-10-16, 01:04:00,VALID,916.585,VALID,0,VALID,100,VALID,-0.0339617,VALID,19.4662,VALID,82,VALID,0.514172,
2008-10-16, 01:05:00,VALID,916.583,VALID,0,VALID,100,VALID,-0.0509425,VALID,19.4759,VALID,76,VALID,0.0456032,
2008-10-16, 01:06:00,VALID,916.589,VALID,0,VALID,100,VALID,-0.0509425,VALID,19.4767,VALID,83,VALID,0,
2008-10-16, 01:07:00,VALID,916.576,VALID,0,VALID,100,VALID,-0.0339617,VALID,19.4637,VALID,87,VALID,0,
2008-10-16, 01:08:00,VALID,916.565,VALID,0,VALID,100,VALID,0,VALID,19.4532,VALID,65,VALID,0,
2008-10-16, 01:09:00,VALID,916.567,VALID,0,VALID,100,VALID,-0.0169808,VALID,19.4664,VALID,73,VALID,0,
2008-10-16, 01:10:00,VALID,916.557,VALID,0,VALID,100,VALID,-0.0339617,VALID,19.4435,VALID,88,VALID,0,
2008-10-16, 01:11:00,VALID,916.558,VALID,0,VALID,100,VALID,-0.0509425,VALID,19.4365,VALID,95,VALID,0,
2008-10-16, 01:12:00,VALID,916.558,VALID,0,VALID,100,VALID,-0.0169808,VALID,19.44,VALID,92,VALID,0,
2008-10-16, 01:13:00,VALID,916.548,VALID,0,VALID,100,VALID,0,VALID,19.4365,VALID,91,VALID,0,
2008-10-16, 01:14:00,VALID,916.538,VALID,0,VALID,100,VALID,-0.0509425,VALID,19.4303,VALID,91,VALID,0,
2008-10-16, 01:15:00,VALID,916.52,VALID,0,VALID,100,VALID,-0.0509425,VALID,19.4372,VALID,91,VALID,0,
2008-10-16, 01:16:00,VALID,916.514,VALID,0,VALID,100,VALID,-0.0509425,VALID,19.45,VALID,91,VALID,0,
2008-10-16, 01:17:00,VALID,916.512,VALID,0,VALID,100,VALID,-0.0509425,VALID,19.453,VALID,91,VALID,0,
2008-10-16, 01:18:00,VALID,916.502,VALID,0,VALID,100,VALID,-0.0679233,VALID,19.4567,VALID,91,VALID,0,
2008-10-16, 01:19:00,VALID,916.5,VALID,0,VALID,100,VALID,0,VALID,19.4602,VALID,91,VALID,0,
2008-10-16, 01:20:00,VALID,916.494,VALID,0,VALID,100,VALID,-0.0679233,VALID,19.4235,VALID,91,VALID,0,
2008-10-16, 01:21:00,VALID,916.502,VALID,0,VALID,100,VALID,-0.0339617,VALID,19.4113,VALID,91,VALID,0,
2008-10-16, 01:22:00,VALID,916.483,VALID,0,VALID,100,VALID,-0.0169808,VALID,19.3946,VALID,91,VALID,0,
2008-10-16, 01:23:00,VALID,916.476,VALID,0,VALID,100,VALID,-0.0339617,VALID,19.4013,VALID,91,VALID,0,
2008-10-16, 01:24:00,VALID,916.45,VALID,0,VALID,100,VALID,-0.0509425,VALID,19.3983,VALID,91,VALID,0,
2008-10-16, 01:25:00,VALID,916.437,VALID,0,VALID,100,VALID,-0.0339617,VALID,19.3916,VALID,91,VALID,0,
2008-10-16, 01:26:00,VALID,916.421,VALID,0,VALID,100,VALID,-0.0339617,VALID,19.3983,VALID,91,VALID,0,
2008-10-16, 01:27:00,VALID,916.414,VALID,0,VALID,100,VALID,-0.0339617,VALID,19.4245,VALID,91,VALID,0,
2008-10-16, 01:28:00,VALID,916.389,VALID,0,VALID,100,VALID,-0.0169808,VALID,19.4335,VALID,91,VALID,0,
2008-10-16, 01:29:00,VALID,916.376,VALID,0,VALID,100,VALID,0,VALID,19.444,VALID,91,VALID,0,
2008-10-16, 01:30:00,VALID,916.347,VALID,0,VALID,100,VALID,-0.0339617,VALID,19.4527,VALID,91,VALID,0,
2008-10-16, 01:31:00,VALID,916.327,VALID,0,VALID,100,VALID,-0.0169808,VALID,19.4632,VALID,91,VALID,0,
2008-10-16, 01:32:00,VALID,916.3,VALID,0,VALID,100,VALID,-0.0339617,VALID,19.4859,VALID,91,VALID,0,
2008-10-16, 01:33:00,VALID,916.295,VALID,0,VALID,100,VALID,-0.0339617,VALID,19.5019,VALID,91,VALID,0,
2008-10-16, 01:34:00,VALID,916.295,VALID,0,VALID,100,VALID,-0.0509425,VALID,19.5383,VALID,91,VALID,0,
2008-10-16, 01:35:00,VALID,916.289,VALID,0,VALID,100,VALID,-0.101885,VALID,19.5508,VALID,91,VALID,0,
2008-10-16, 01:36:00,VALID,916.294,VALID,0,VALID,100,VALID,-0.101885,VALID,19.5515,VALID,91,VALID,0,
2008-10-16, 01:37:00,VALID,916.29,VALID,0,VALID,100,VALID,-0.0849042,VALID,19.5451,VALID,91,VALID,0,
2008-10-16, 01:38:00,VALID,916.286,VALID,0,VALID,100,VALID,-0.101885,VALID,19.5288,VALID,91,VALID,0,
2008-10-16, 01:39:00,VALID,916.277,VALID,0,VALID,100,VALID,-0.101885,VALID,19.5578,VALID,91,VALID,0,
2008-10-16, 01:40:00,VALID,916.251,VALID,0,VALID,100,VALID,-0.101885,VALID,19.5381,VALID,91,VALID,0,
2008-10-16, 01:41:00,VALID,916.219,VALID,0,VALID,100,VALID,-0.101885,VALID,19.5158,VALID,91,VALID,0,
2008-10-16, 01:42:00,VALID,916.19,VALID,0,VALID,100,VALID,-0.0849042,VALID,19.4767,VALID,91,VALID,0,
2008-10-16, 01:43:00,VALID,916.17,VALID,0,VALID,100,VALID,-0.101885,VALID,19.4537,VALID,91,VALID,0,
2008-10-16, 01:44:00,VALID,916.152,VALID,0,VALID,100,VALID,-0.0849042,VALID,19.4445,VALID,91,VALID,0,
2008-10-16, 01:45:00,VALID,916.137,VALID,0,VALID,100,VALID,-0.0849042,VALID,19.4245,VALID,91,VALID,0,
2008-10-16, 01:46:00,VALID,916.147,VALID,0,VALID,100,VALID,-0.0849042,VALID,19.4278,VALID,91,VALID,0,
2008-10-16, 01:47:00,VALID,916.135,VALID,0,VALID,100,VALID,-0.101885,VALID,19.4412,VALID,91,VALID,0,
2008-10-16, 01:48:00,VALID,916.118,VALID,0,VALID,100,VALID,-0.101885,VALID,19.4248,VALID,91,VALID,0,
2008-10-16, 01:49:00,VALID,916.102,VALID,0,VALID,100,VALID,-0.0509425,VALID,19.4243,VALID,91,VALID,0,
2008-10-16, 01:50:00,VALID,916.094,VALID,0,VALID,100,VALID,0.0169808,VALID,19.4268,VALID,87,VALID,0,
2008-10-16, 01:51:00,VALID,916.086,VALID,0,VALID,100,VALID,-0.0169808,VALID,19.4298,VALID,83,VALID,0,
2008-10-16, 01:52:00,VALID,916.084,VALID,0,VALID,100,VALID,0,VALID,19.4462,VALID,76,VALID,0,
2008-10-16, 01:53:00,VALID,916.068,VALID,0,VALID,100,VALID,0,VALID,19.4393,VALID,46,VALID,0,
2008-10-16, 01:54:00,VALID,916.056,VALID,0,VALID,100,VALID,0,VALID,19.4363,VALID,40,VALID,0,
2008-10-16, 01:55:00,VALID,916.06,VALID,0,VALID,100,VALID,0.0169808,VALID,19.4233,VALID,50,VALID,0,
2008-10-16, 01:56:00,VALID,916.068,VALID,0,VALID,100,VALID,0.0169808,VALID,19.4365,VALID,50,VALID,0,
2008-10-16, 01:57:00,VALID,916.057,VALID,0,VALID,100,VALID,0,VALID,19.4008,VALID,56,VALID,0.000585938,
2008-10-16, 01:58:00,VALID,916.063,VALID,0,VALID,100,VALID,0.0169808,VALID,19.3841,VALID,56,VALID,0.000726744,
2008-10-16, 01:59:00,VALID,916.058,VALID,0,VALID,100,VALID,0,VALID,19.3781,VALID,58,VALID,0.446057,
2008-10-16, 02:00:00,VALID,916.049,VALID,0,VALID,100,VALID,0,VALID,19.3651,VALID,55,VALID,0.166371,
2008-10-16, 02:01:00,VALID,916.023,VALID,0,VALID,100,VALID,0,VALID,19.3514,VALID,60,VALID,0.515803,
2008-10-16, 02:02:00,VALID,916.022,VALID,0,VALID,100,VALID,0,VALID,19.3554,VALID,71,VALID,0,
2008-10-16, 02:03:00,VALID,916.017,VALID,0,VALID,100,VALID,0,VALID,19.3651,VALID,71,VALID,0,
2008-10-16, 02:04:00,VALID,916.026,VALID,0,VALID,100,VALID,0.0339617,VALID,19.3419,VALID,71,VALID,0,
2008-10-16, 02:05:00,VALID,916.021,VALID,0,VALID,100,VALID,0,VALID,19.3651,VALID,72,VALID,0,
2008-10-16, 02:06:00,VALID,916.026,VALID,0,VALID,100,VALID,0.0339617,VALID,19.3487,VALID,77,VALID,0,
2008-10-16, 02:07:00,VALID,916.024,VALID,0,VALID,100,VALID,0,VALID,19.3392,VALID,77,VALID,0,
2008-10-16, 02:08:00,VALID,916.031,VALID,0,VALID,100,VALID,0.0169808,VALID,19.3282,VALID,77,VALID,0,
2008-10-16, 02:09:00,VALID,916.042,VALID,0,VALID,100,VALID,0.0169808,VALID,19.3487,VALID,77,VALID,0,
2008-10-16, 02:10:00,VALID,916.04,VALID,0,VALID,100,VALID,0.0679233,VALID,19.3607,VALID,77,VALID,0,
2008-10-16, 02:11:00,VALID,916.05,VALID,0,VALID,100,VALID,0.0169808,VALID,19.3843,VALID,77,VALID,0,
2008-10-16, 02:12:00,VALID,916.043,VALID,0,VALID,100,VALID,0,VALID,19.3876,VALID,77,VALID,0,
2008-10-16, 02:13:00,VALID,916.034,VALID,0,VALID,100,VALID,0.0339617,VALID,19.4006,VALID,77,VALID,0,
2008-10-16, 02:14:00,VALID,916.007,VALID,0,VALID,100,VALID,0,VALID,19.4071,VALID,78,VALID,0,
2008-10-16, 02:15:00,VALID,915.986,VALID,0,VALID,100,VALID,0,VALID,19.3906,VALID,114,VALID,0,
2008-10-16, 02:16:00,VALID,915.955,VALID,0,VALID,100,VALID,0.0679233,VALID,19.3739,VALID,131,VALID,0,
2008-10-16, 02:17:00,VALID,915.943,VALID,0,VALID,100,VALID,0.0509425,VALID,19.3741,VALID,131,VALID,0,
2008-10-16, 02:18:00,VALID,915.933,VALID,0,VALID,100,VALID,0,VALID,19.3739,VALID,152,VALID,0,
2008-10-16, 02:19:00,VALID,915.943,VALID,0,VALID,100,VALID,0,VALID,19.3811,VALID,159,VALID,0,
2008-10-16, 02:20:00,VALID,915.939,VALID,0,VALID,100,VALID,0,VALID,19.3716,VALID,159,VALID,0,
2008-10-16, 02:21:00,VALID,915.962,VALID,0,VALID,100,VALID,0,VALID,19.3584,VALID,156,VALID,0.152902,
2008-10-16, 02:22:00,VALID,915.974,VALID,0,VALID,100,VALID,0.0169808,VALID,19.3389,VALID,152,VALID,0,
2008-10-16, 02:23:00,VALID,915.993,VALID,0,VALID,100,VALID,0,VALID,19.3292,VALID,153,VALID,0,
2008-10-16, 02:24:00,VALID,915.999,VALID,0,VALID,100,VALID,0,VALID,19.3132,VALID,161,VALID,0,
2008-10-16, 02:25:00,VALID,916.008,VALID,0,VALID,100,VALID,0.0169808,VALID,19.2935,VALID,161,VALID,0,
2008-10-16, 02:26:00,VALID,915.999,VALID,0,VALID,100,VALID,0,VALID,19.29,VALID,161,VALID,0,
2008-10-16, 02:27:00,VALID,915.983,VALID,0,VALID,100,VALID,0,VALID,19.3032,VALID,161,VALID,0,
2008-10-16, 02:28:00,VALID,915.981,VALID,0,VALID,100,VALID,-0.0169808,VALID,19.31,VALID,161,VALID,0,
2008-10-16, 02:29:00,VALID,915.957,VALID,0,VALID,100,VALID,-0.0339617,VALID,19.3262,VALID,178,VALID,0,
2008-10-16, 02:30:00,VALID,915.953,VALID,0,VALID,100,VALID,0,VALID,19.326,VALID,202,VALID,0.161014,
2008-10-16, 02:31:00,VALID,915.963,VALID,0,VALID,100,VALID,0,VALID,19.3165,VALID,189,VALID,0.381641,
2008-10-16, 02:32:00,VALID,915.987,VALID,0,VALID,100,VALID,-0.0169808,VALID,19.3127,VALID,191,VALID,0.861737,
2008-10-16, 02:33:00,VALID,916,VALID,0,VALID,100,VALID,0.0339617,VALID,19.3065,VALID,192,VALID,0.430804,
2008-10-16, 02:34:00,VALID,915.99,VALID,0,VALID,100,VALID,0,VALID,19.2873,VALID,186,VALID,0.0113467,
2008-10-16, 02:35:00,VALID,915.993,VALID,0,VALID,100,VALID,-0.0339617,VALID,19.2733,VALID,158,VALID,0.243576,
2008-10-16, 02:36:00,VALID,915.994,VALID,0,VALID,100,VALID,0,VALID,19.2808,VALID,166,VALID,0.203125,
2008-10-16, 02:37:00,VALID,915.981,VALID,0,VALID,100,VALID,0,VALID,19.2808,VALID,173,VALID,0.276278,
2008-10-16, 02:38:00,VALID,915.98,VALID,0,VALID,100,VALID,-0.0509425,VALID,19.271,VALID,169,VALID,0.90625,
2008-10-16, 02:39:00,VALID,915.98,VALID,0,VALID,100,VALID,-0.0509425,VALID,19.2613,VALID,169,VALID,0.931974,
2008-10-16, 02:40:00,VALID,915.968,VALID,0,VALID,100,VALID,-0.0339617,VALID,19.2581,VALID,176,VALID,0.500533,
2008-10-16, 02:41:00,VALID,915.967,VALID,0,VALID,100,VALID,-0.0169808,VALID,19.2513,VALID,166,VALID,0.0254836,
2008-10-16, 02:42:00,VALID,915.958,VALID,0,VALID,100,VALID,-0.0509425,VALID,19.2483,VALID,159,VALID,0,
2008-10-16, 02:43:00,VALID,915.948,VALID,0,VALID,100,VALID,-0.0509425,VALID,19.2548,VALID,153,VALID,0,
2008-10-16, 02:44:00,VALID,915.948,VALID,0,VALID,100,VALID,0,VALID,19.2446,VALID,153,VALID,0.0665923,
2008-10-16, 02:45:00,VALID,915.942,VALID,0,VALID,100,VALID,-0.0169808,VALID,19.2479,VALID,149,VALID,0.113567,
2008-10-16, 02:46:00,VALID,915.947,VALID,0,VALID,100,VALID,0,VALID,19.2608,VALID,125,VALID,0.0767045,
2008-10-16, 02:47:00,VALID,915.936,VALID,0,VALID,100,VALID,-0.0169808,VALID,19.2548,VALID,131,VALID,0.51684,
2008-10-16, 02:48:00,VALID,915.935,VALID,0,VALID,100,VALID,-0.0679233,VALID,19.2581,VALID,130,VALID,0.244048,
2008-10-16, 02:49:00,VALID,915.929,VALID,0,VALID,100,VALID,0,VALID,19.2643,VALID,130,VALID,0.545541,
2008-10-16, 02:50:00,VALID,915.931,VALID,0,VALID,100,VALID,-0.0169808,VALID,19.271,VALID,128,VALID,0.318892,
2008-10-16, 02:51:00,VALID,915.953,VALID,0,VALID,100,VALID,0,VALID,19.2775,VALID,132,VALID,0.582667,
2008-10-16, 02:52:00,VALID,915.972,VALID,0,VALID,100,VALID,-0.0169808,VALID,19.3067,VALID,143,VALID,0.786328,
2008-10-16, 02:53:00,VALID,915.975,VALID,0,VALID,100,VALID,-0.0169808,VALID,19.3067,VALID,142,VALID,0.499826,
2008-10-16, 02:54:00,VALID,915.975,VALID,0,VALID,100,VALID,-0.0339617,VALID,19.3262,VALID,142,VALID,0,
2008-10-16, 02:55:00,VALID,915.97,VALID,0,VALID,100,VALID,-0.101885,VALID,19.3424,VALID,142,VALID,0,
2008-10-16, 02:56:00,VALID,915.948,VALID,0,VALID,100,VALID,-0.0169808,VALID,19.3621,VALID,138,VALID,0.0410156,
2008-10-16, 02:57:00,VALID,915.94,VALID,0,VALID,100,VALID,-0.0169808,VALID,19.3749,VALID,139,VALID,0.00434028,
2008-10-16, 02:58:00,VALID,915.93,VALID,0,VALID,100,VALID,-0.0679233,VALID,19.3946,VALID,146,VALID,0.46005,
2008-10-16, 02:59:00,VALID,915.924,VALID,0,VALID,100,VALID,-0.0339617,VALID,19.3878,VALID,139,VALID,0.688408,
2008-10-16, 03:00:00,VALID,915.904,VALID,0,VALID,100,VALID,-0.0169808,VALID,19.3911,VALID,142,VALID,0.0234375,
2008-10-16, 03:01:00,VALID,915.897,VALID,0,VALID,100,VALID,-0.0339617,VALID,19.3876,VALID,143,VALID,0,
2008-10-16, 03:02:00,VALID,915.873,VALID,0,VALID,100,VALID,-0.0509425,VALID,19.3779,VALID,140,VALID,0,
2008-10-16, 03:03:00,VALID,915.866,VALID,0,VALID,100,VALID,-0.0509425,VALID,19.3814,VALID,145,VALID,0,
2008-10-16, 03:04:00,VALID,915.85,VALID,0,VALID,100,VALID,-0.0339617,VALID,19.3749,VALID,139,VALID,0,
2008-10-16, 03:05:00,VALID,915.845,VALID,0,VALID,100,VALID,-0.0339617,VALID,19.3878,VALID,135,VALID,0.127976,
2008-10-16, 03:06:00,VALID,915.826,VALID,0,VALID,100,VALID,-0.0509425,VALID,19.3719,VALID,137,VALID,0.336769,
2008-10-16, 03:07:00,VALID,915.814,VALID,0,VALID,100,VALID,-0.0509425,VALID,19.3554,VALID,132,VALID,0,
2008-10-16, 03:08:00,VALID,915.794,VALID,0,VALID,100,VALID,-0.0509425,VALID,19.3489,VALID,136,VALID,0,
2008-10-16, 03:09:00,VALID,915.772,VALID,0,VALID,100,VALID,-0.0169808,VALID,19.3424,VALID,137,VALID,0,
2008-10-16, 03:10:00,VALID,915.734,VALID,0,VALID,100,VALID,-0.0339617,VALID,19.3424,VALID,140,VALID,0,
2008-10-16, 03:11:00,VALID,915.718,VALID,0,VALID,100,VALID,-0.0339617,VALID,19.3457,VALID,149,VALID,0,
2008-10-16, 03:12:00,VALID,915.697,VALID,0,VALID,100,VALID,-0.0339617,VALID,19.3262,VALID,151,VALID,0,
2008-10-16, 03:13:00,VALID,915.675,VALID,0,VALID,100,VALID,-0.0339617,VALID,19.3127,VALID,151,VALID,0,
2008-10-16, 03:14:00,VALID,915.659,VALID,0,VALID,100,VALID,-0.0339617,VALID,19.3132,VALID,151,VALID,0,
2008-10-16, 03:15:00,VALID,915.663,VALID,0,VALID,100,VALID,-0.0169808,VALID,19.303,VALID,151,VALID,0,
2008-10-16, 03:16:00,VALID,915.657,VALID,0,VALID,100,VALID,-0.0169808,VALID,19.3127,VALID,151,VALID,0,
2008-10-16, 03:17:00,VALID,915.657,VALID,0,VALID,100,VALID,-0.0509425,VALID,19.31,VALID,151,VALID,0,
2008-10-16, 03:18:00,VALID,915.665,VALID,0,VALID,100,VALID,-0.0169808,VALID,19.3067,VALID,151,VALID,0,
2008-10-16, 03:19:00,VALID,915.665,VALID,0,VALID,100,VALID,-0.0509425,VALID,19.2833,VALID,151,VALID,0,
2008-10-16, 03:20:00,VALID,915.659,VALID,0,VALID,100,VALID,0,VALID,19.2668,VALID,151,VALID,0,
2008-10-16, 03:21:00,VALID,915.646,VALID,0,VALID,100,VALID,0,VALID,19.2603,VALID,151,VALID,0,
2008-10-16, 03:22:00,VALID,915.647,VALID,0,VALID,100,VALID,0,VALID,19.2641,VALID,151,VALID,0,
2008-10-16, 03:23:00,VALID,915.632,VALID,0,VALID,100,VALID,-0.0169808,VALID,19.2381,VALID,151,VALID,0,
2008-10-16, 03:24:00,VALID,915.632,VALID,0,VALID,100,VALID,-0.0169808,VALID,19.2286,VALID,151,VALID,0,
2008-10-16, 03:25:00,VALID,915.619,VALID,0,VALID,100,VALID,-0.0169808,VALID,19.2251,VALID,151,VALID,0,
2008-10-16, 03:26:00,VALID,915.622,VALID,0,VALID,100,VALID,0,VALID,19.2251,VALID,151,VALID,0,
2008-10-16, 03:27:00,VALID,915.622,VALID,0,VALID,100,VALID,0,VALID,19.2159,VALID,151,VALID,0,
2008-10-16, 03:28:00,VALID,915.618,VALID,0,VALID,100,VALID,-0.0509425,VALID,19.1835,VALID,144,VALID,0,
2008-10-16, 03:29:00,VALID,915.628,VALID,0,VALID,100,VALID,-0.0169808,VALID,19.1573,VALID,136,VALID,0,
2008-10-16, 03:30:00,VALID,915.622,VALID,0,VALID,100,VALID,0.0169808,VALID,19.1568,VALID,136,VALID,0,
2008-10-16, 03:31:00,VALID,915.608,VALID,0,VALID,100,VALID,-0.0169808,VALID,19.167,VALID,136,VALID,0,
2008-10-16, 03:32:00,VALID,915.6,VALID,0,VALID,100,VALID,-0.0169808,VALID,19.1575,VALID,135,VALID,0,
2008-10-16, 03:33:00,VALID,915.582,VALID,0,VALID,100,VALID,-0.0169808,VALID,19.1406,VALID,128,VALID,0,
2008-10-16, 03:34:00,VALID,915.563,VALID,0,VALID,100,VALID,-0.0339617,VALID,19.1253,VALID,134,VALID,0,
2008-10-16, 03:35:00,VALID,915.545,VALID,0,VALID,100,VALID,-0.0339617,VALID,19.1123,VALID,140,VALID,0,
2008-10-16, 03:36:00,VALID,915.541,VALID,0,VALID,100,VALID,-0.0509425,VALID,19.0732,VALID,139,VALID,0,
2008-10-16, 03:37:00,VALID,915.531,VALID,0,VALID,100,VALID,-0.0339617,VALID,19.0602,VALID,134,VALID,0.107171,
2008-10-16, 03:38:00,VALID,915.523,VALID,0,VALID,100,VALID,-0.0679233,VALID,19.0537,VALID,141,VALID,0.186336,
2008-10-16, 03:39:00,VALID,915.529,VALID,0,VALID,100,VALID,-0.0339617,VALID,19.0509,VALID,136,VALID,0.00142045,
2008-10-16, 03:40:00,VALID,915.518,VALID,0,VALID,100,VALID,-0.0679233,VALID,19.0442,VALID,139,VALID,0.123698,
2008-10-16, 03:41:00,VALID,915.531,VALID,0,VALID,100,VALID,-0.0679233,VALID,19.0347,VALID,135,VALID,0.59189,
2008-10-16, 03:42:00,VALID,915.517,VALID,0,VALID,100,VALID,-0.0339617,VALID,19.0345,VALID,139,VALID,0.0898438,
2008-10-16, 03:43:00,VALID,915.515,VALID,0,VALID,100,VALID,-0.0509425,VALID,19.0312,VALID,141,VALID,0,
2008-10-16, 03:44:00,VALID,915.509,VALID,0,VALID,100,VALID,-0.0509425,VALID,19.0312,VALID,142,VALID,0.000868056,
2008-10-16, 03:45:00,VALID,915.507,VALID,0,VALID,100,VALID,-0.0509425,VALID,19.044,VALID,144,VALID,0,
2008-10-16, 03:46:00,VALID,915.488,VALID,0,VALID,100,VALID,-0.0339617,VALID,19.0572,VALID,139,VALID,0,
2008-10-16, 03:47:00,VALID,915.48,VALID,0,VALID,100,VALID,-0.0169808,VALID,19.041,VALID,124,VALID,0,
2008-10-16, 03:48:00,VALID,915.469,VALID,0,VALID,100,VALID,-0.0509425,VALID,19.0442,VALID,134,VALID,0,
2008-10-16, 03:49:00,VALID,915.463,VALID,0,VALID,100,VALID,-0.0339617,VALID,19.0537,VALID,130,VALID,0,